Location: Eferding
(48.3167°N, 14.0167°E)
Time: 02:41:41
(UTC+00:00)

Cosmos 2369 - Pass Details

Date: 12 November 2019
Orbit: 838 x 858 km, 71.0° (Epoch: 15 December)

Event Time Altitude Azimuth Distance (km) Brightness Sun altitude
Rises 17:52:39 0° 195° (SSW) 3,382 7.0 -23.8°
Reaches altitude 10° 17:55:05 10° 193° (SSW) 2,454 6.2 -24.2°
Enters shadow 18:00:31 64° 121° (ESE) 934 3.6 -25.1°
